Regional Weather Roundup
Issued by NWS Jackson, KY

Home | Current Version | Previous Version | Text Only | Print | Product List | Glossary On
Versions: 1 2 3 4 5 6 7 8 9 10 11 12 13 14 15 16 17 18 19 20 21 22 23 24 25 26 27
000
ASUS43 KJKL 201610
RWRJKL

EAST KENTUCKY HOURLY WEATHER ROUNDUP
NATIONAL WEATHER SERVICE JACKSON KY
1100 AM EST MON NOV 20 2017

NOTE: "FAIR" INDICATES FEW OR NO CLOUDS BELOW 12,000 FEET WITH
NO SIGNIFICANT WEATHER AND/OR OBSTRUCTIONS TO VISIBILITY.

* THESE REPORTS ARE NOT UNDER NWS QUALITY CONTROL AND MAY NOT
  REPORT WEATHER SUCH AS PRECIPITATION AND FOG.

KYZ079-080-083-085-087-088-110-112-115-119-120-201700
...EASTERN KENTUCKY...

CITY           SKY/WX    TMP DP  RH WIND       PRES   REMARKS
JACKSON        SUNNY     37  27  67 VRB3      30.26S
LONDON         SUNNY     37  25  61 VRB5      30.28R WCI  33
SOMERSET*      SUNNY     36  28  75 S7        30.30F WCI  30
MONTICELLO*    SUNNY     40  27  59 VRB3      30.30F
WILLIAMSBURG*  SUNNY     37  30  75 E3        30.28S
MIDDLESBORO*   SUNNY     40  27  59 SE6       30.29F
HARLAN APT*    SUNNY     36  30  80 CALM      30.27S
PIKE CO APT*     N/A     36  27  68 CALM      30.26S
BIG SANDY APT* SUNNY     38  27  62 SW6       30.27F WCI  34
MOREHEAD APT*  SUNNY     37  25  60 SW7       30.28S WCI  32
$$

KYZ035-036-041-042-044-050-067-078-099-201700
...CENTRAL KENTUCKY...

CITY           SKY/WX    TMP DP  RH WIND       PRES   REMARKS
MT STERLING*   SUNNY     37  27  65 W6        30.28S WCI  33
FLEMING/MASON* SUNNY     37  25  61 SW9       30.28R WCI  31
DANVILLE*      SUNNY     37  27  65 SW9       30.28R WCI  31
LEXINGTON      SUNNY     39  24  55 S9        30.26S WCI  33
FRANKFORT      SUNNY     39  24  55 S8        30.25S WCI  33
LOUISVILLE     PTSUNNY   41  24  51 S7        30.25S
LEBANON*         N/A     37  25  60 S9        30.27S WCI  31
GLASGOW*       SUNNY     42  25  52 SE7       30.26F
BOWLING GREEN  SUNNY     42  25  50 S7        30.28F
$$

KYZ091>093-OHZ055-061-077-WVZ005-015-034-035-042-201700
...SOUTHERN OHIO/WEST VIRGINIA...

CITY           SKY/WX    TMP DP  RH WIND       PRES   REMARKS
COVINGTON      PTSUNNY   37  25  61 S13       30.22S WCI  29
COLUMBUS       SUNNY     37  25  61 S13       30.20F WCI  29
DAYTON         MOSUNNY   36  25  64 S17       30.18F WCI  26
WILMINGTON     SUNNY     35  27  72 SW15      30.20F WCI  25
HUNTINGTON     SUNNY     38  24  57 VRB5      30.27F WCI  34
CHARLESTON     SUNNY     38  22  52 SW9       30.27S WCI  31
PINEVILLE*     SUNNY     37  25  61 MISG      30.31S
BECKLEY        SUNNY     34  21  59 SW9       30.22R WCI  27
BLUEFIELD      SUNNY     33  20  58 W8        30.22R WCI  26
LOGAN CO APT*    N/A     37  25  60 S6        30.25F WCI  33
$$

VAZ002-007-008-TNZ017-027-036-066-071-201700
...SOUTHWEST VIRGINIA/EAST TENNESSEE...

CITY           SKY/WX    TMP DP  RH WIND       PRES   REMARKS
WISE*          SUNNY     37  25  60 SW3       30.23S
JONESVILLE*      N/A     39  27  60 S5        30.31S
ABINGDON*      SUNNY     40  28  62 W5        30.26S
BRISTOL        SUNNY     39  29  67 CALM      30.27F
MORRISTOWN*    SUNNY     41  28  60 VRB3      30.27F
SEVIERVILLE*   SUNNY     39  32  75 CALM      30.28F
KNOXVILLE      MOSUNNY   41  33  73 E3        30.28F
LAFOLLETTE*    SUNNY     39  30  70 CALM      30.32F
OAK RIDGE      SUNNY     41  28  60 E3        30.30F
CROSSVILLE     SUNNY     41  25  53 CALM      30.24F
NASHVILLE      PTSUNNY   42  25  50 S7        30.28F
$$

...KEY TO REMARKS...
VSB - VISIBILITY IN MILES
WCI - WIND CHILL INDEX
HX  - HEAT INDEX

$$




USA.gov is the U.S. government's official web portal to all federal, state and local government web resources and services.